Regional Weather Roundup
Issued by NWS

Home | Current Version | Previous Version | Graphics & Text | Print | Product List | Glossary On
Versions: 1 2 3 4 5 6 7 8 9 10 11 12 13 14 15 16 17 18 19 20 21 22 23 24 25 26 27 28 29 30 31 32 33 34 35 36 37 38 39 40 41 42 43 44 45 46 47 48 49 50
908
ASUS45 KBOU 082307
RWRCO

WEATHER ROUNDUP FOR COLORADO
NATIONAL WEATHER SERVICE DENVER/BOULDER CO
400 PM MST MON FEB 08 2016

NOTE: "FAIR" INDICATES FEW OR NO CLOUDS BELOW 12000 FEET WITH NO
SIGNIFICANT WEATHER AND/OR OBSTRUCTIONS TO VISIBILITY.

COZ001>005-013-030-031-090000-
...NORTHWEST COLORADO...

CITY           SKY/WX    TMP DP  RH WIND       PRES   REMARKS
CRAIG          CLOUDY    25  16  68 CALM      30.53F
HAYDEN         CLOUDY    28  16  59 CALM      30.51F
MEEKER         SUNNY     36  22  56 CALM      30.50F
MOUNT WERNER   NOT AVBL
STEAMBOAT SPGS CLOUDY    30  16  57 CALM      30.51S
WALDEN         SUNNY     30  21  69 S6        30.46R WCI  24
$$

COZ006>008-011-090000-
...WEST CENTRAL VALLEYS...

CITY           SKY/WX    TMP DP  RH WIND       PRES   REMARKS
GRAND JUNCTION CLOUDY    35  26  69 NW5       30.51S WCI  31
MONTROSE       CLOUDY    39  20  46 CALM      30.52F
EAGLE          SUNNY     39  19  45 CALM      30.50F
RIFLE          SUNNY     38  20  48 CALM      30.50F
DELTA          CLOUDY    44  22  41 CALM      30.52S
NUCLA          CLOUDY    45  27  49 N3        30.49S
$$

COZ017>023-064>068-090000-
...SOUTHWEST COLORADO...

CITY           SKY/WX    TMP DP  RH WIND       PRES   REMARKS
DURANGO        CLOUDY    41  23  48 NE5       30.39S
CORTEZ         CLOUDY    50  24  36 NW17G31   30.38S
PAGOSA SPRINGS CLOUDY    46  21  37 CALM      30.41R
TELLURIDE      CLOUDY    45  12  26 NE5       30.49S
WOLF CREEK PAS SUNNY     32   9  37 NE14G23   30.54R WCI  22
$$

COZ009-010-012-014-032>034-037-058>063-090000-
...CENTRAL COLORADO...

CITY           SKY/WX    TMP DP  RH WIND       PRES   REMARKS
ASPEN          CLOUDY    39  20  46 N7        30.47S
BUENA VISTA    CLOUDY    45  20  36 NW21G31   30.37R
COPPER MTN     CLOUDY    28  16  59 W18G26    30.50S WCI  16
BERTHOUD PASS  FAIR      19   9  63 NW37G46   30.43S WCI  -1
COTTONWOOD PAS CLOUDY    43  16  33 E3        30.43R
GUNNISON       CLOUDY    21  12  68 E7        30.51F WCI  13
KREMMLING      CLOUDY    32  18  55 CALM      30.49S
LEADVILLE      CLOUDY    35  15  44 N24       30.44S WCI  23
MONARCH PASS   CLOUDY    27  18  69 SW20      30.60R WCI  13
SALIDA         NOT AVBL
SUNLIGHT       CLOUDY    30  23  74 NW3         N/A
WILKERSON PASS SUNNY     30  14  51 N16G29    30.46S WCI  19
$$

COZ069>075-090000-
...SAN LUIS VALLEY/SANGRE DE CRISTO MOUNTAINS...

CITY           SKY/WX    TMP DP  RH WIND       PRES   REMARKS
ALAMOSA        SUNNY     44  18  35 SW6       30.38F
LA VETA PASS   SUNNY     39  18  41 S6        30.41S
SAGUACHE       SUNNY     45  21  39 N13       30.39F
$$

COZ035-036-038>040-090000-
...NORTHERN COLORADO FRONT RANGE...

CITY           SKY/WX    TMP DP  RH WIND       PRES   REMARKS
DENVER INTL AP PTSUNNY   41  25  53 SE6       30.32R
DMNS CITY PARK   N/A     46  21  37 SE14      30.32R
AURORA         PTSUNNY   40  25  54 SE7       30.33S
FRONT RANGE AP PTSUNNY   41  21  45 N7        30.33R
ERIE MUNI ARPT SUNNY     46  24  43 SE7       30.31R
BOULDER MUN AP SUNNY     43  27  52 N6        30.31R
CENTENNIAL     MOSUNNY   42  22  44 SE7       30.32S
BROOMFIELD     PTSUNNY   48  23  37 SE6       30.31S
FORT COLLINS   SUNNY     39  25  56 S7        30.33R
LONGMONT       SUNNY     45  25  45 CALM      30.33R
$$

COZ041-046-047-076>085-087-088-090000-
...PIKES PEAK/PALMER DIVIDE AND SOUTHERN FOOTHILLS...

CITY           SKY/WX    TMP DP  RH WIND       PRES   REMARKS
COLO. SPRINGS  MOSUNNY   38  21  50 NE5       30.36R
A. F. ACADEMY  SUNNY     37  22  55 S5        30.34R
SCHRIEVER AFB  NOT AVBL
ELLICOTT       NOT AVBL
FALCON         SUNNY     36  22  56 SW6       30.36R
FORT CARSON    SUNNY     38  24  58 E3        30.34R
LIMON          SUNNY     35  25  66 W8        30.32R WCI  29
MONUMENT HILL  SUNNY     34  21  60 CALM      30.35S
TRINIDAD       SUNNY     47  20  34 E10       30.33S
$$

COZ042>045-048>051-090-091-090000-
...NORTHEAST COLORADO...

CITY           SKY/WX    TMP DP  RH WIND       PRES   REMARKS
GREELEY ARPT   SUNNY     39  25  56 CALM      30.33S
AKRON          CLOUDY    38  29  70 NW12      30.30R
BURLINGTON     CLOUDY    38  25  59 N9        30.29S
WRAY           CLOUDY    39  28  64 NW14      30.29F
STERLING       CLOUDY    39  32  75 NW6       30.29F
HOLYOKE        CLOUDY    41  28  60 NW17      30.27F
FORT MORGAN    CLOUDY    41  28  60 NW12      30.32S
$$

COZ086-089-092>099-090000-
...SOUTHEAST COLORADO...

CITY           SKY/WX    TMP DP  RH WIND       PRES   REMARKS
PUEBLO         SUNNY     49  23  36 E7        30.35R
LA JUNTA       SUNNY     46  22  38 NW9       30.35F
LAMAR          SUNNY     46  24  42 NW13      30.33R
SPRINGFIELD      N/A     44  21  40 NW16      30.33S
$$




USA.gov is the U.S. government's official web portal to all federal, state and local government web resources and services.